Location: Bonaustraße
(48.4603°N, 11.9280°E)
Time: 03:54:31
(UTC+01:00)

Envisat - Pass Details

Date: 25 January 2021
Orbit: 764 x 766 km, 98.1° (Epoch: 05 March)

Event Time Altitude Azimuth Distance (km) Brightness Sun altitude
Rises 18:32:03 0° 216° (SW) 3,222 7.0 -15.1°
Reaches altitude 10° 18:35:26 10° 240° (WSW) 2,303 6.6 -15.7°
Maximum altitude 18:38:11 15° 273° (W) 2,007 6.3 -16.1°
Drops below altitude 10° 18:40:56 10° 306° (NW) 2,312 6.1 -16.6°
Sets 18:44:22 0° 330° (NNW) 3,245 6.5 -17.1°
